TimeMST,TemperatureF,Dew PointF,Humidity,Sea Level PressureIn,VisibilityMPH,Wind Direction,Wind SpeedMPH,Gust SpeedMPH,PrecipitationIn,Events,Conditions,WindDirDegrees,DateUTC
12:15 AM,3.2,-0.4,85,30.43,10.0,SSE,3.5,-,N/A,,Clear,160,2014-01-06 07:15:00
12:35 AM,3.2,-2.2,78,30.43,10.0,Calm,Calm,-,N/A,,Clear,0,2014-01-06 07:35:00
12:55 AM,3.2,-2.2,78,30.43,10.0,Calm,Calm,-,N/A,,Clear,0,2014-01-06 07:55:00
1:15 AM,3.2,-0.4,85,30.43,10.0,Calm,Calm,-,N/A,,Clear,0,2014-01-06 08:15:00
1:35 AM,1.4,-2.2,85,30.43,10.0,Calm,Calm,-,N/A,,Clear,0,2014-01-06 08:35:00
1:55 AM,1.4,-2.2,85,30.44,10.0,Calm,Calm,-,N/A,,Clear,0,2014-01-06 08:55:00
2:15 AM,1.4,-4.0,78,30.44,10.0,Calm,Calm,-,N/A,,Clear,0,2014-01-06 09:15:00
2:35 AM,1.4,-4.0,78,30.46,10.0,Calm,Calm,-,N/A,,Clear,0,2014-01-06 09:35:00
2:55 AM,1.4,-4.0,78,30.46,10.0,Calm,Calm,-,N/A,,Clear,0,2014-01-06 09:55:00
3:15 AM,-0.4,-5.8,78,30.46,10.0,Calm,Calm,-,N/A,,Clear,0,2014-01-06 10:15:00
3:35 AM,1.4,-4.0,78,30.46,10.0,Calm,Calm,-,N/A,,Clear,0,2014-01-06 10:35:00
3:55 AM,-0.4,-4.0,85,30.47,10.0,Calm,Calm,-,N/A,,Clear,0,2014-01-06 10:55:00
4:15 AM,1.4,-4.0,78,30.47,10.0,Calm,Calm,-,N/A,,Clear,0,2014-01-06 11:15:00
4:35 AM,1.4,-2.2,85,30.47,10.0,Calm,Calm,-,N/A,,Clear,0,2014-01-06 11:35:00
4:55 AM,1.4,-0.4,92,30.47,10.0,Calm,Calm,-,N/A,,Clear,0,2014-01-06 11:55:00
5:15 AM,-0.4,-4.0,85,30.47,10.0,Calm,Calm,-,N/A,,Clear,0,2014-01-06 12:15:00
5:35 AM,1.4,-4.0,78,30.48,10.0,ESE,4.6,-,N/A,,Clear,110,2014-01-06 12:35:00
5:55 AM,-0.4,-4.0,85,30.47,10.0,Calm,Calm,-,N/A,,Clear,0,2014-01-06 12:55:00
6:15 AM,1.4,-4.0,78,30.47,10.0,Calm,Calm,-,N/A,,Clear,0,2014-01-06 13:15:00
6:35 AM,1.4,-4.0,78,30.48,10.0,Calm,Calm,-,N/A,,Clear,0,2014-01-06 13:35:00
6:55 AM,1.4,-4.0,78,30.48,10.0,Calm,Calm,-,N/A,,Clear,0,2014-01-06 13:55:00
7:15 AM,-0.4,-4.0,85,30.48,10.0,Calm,Calm,-,N/A,,Clear,0,2014-01-06 14:15:00
7:35 AM,-0.4,-4.0,85,30.49,10.0,Calm,Calm,-,N/A,,Clear,0,2014-01-06 14:35:00
7:55 AM,1.4,-2.2,85,30.49,10.0,Calm,Calm,-,N/A,,Clear,0,2014-01-06 14:55:00
8:15 AM,1.4,-4.0,78,30.50,10.0,Calm,Calm,-,N/A,,Clear,0,2014-01-06 15:15:00
8:35 AM,3.2,-0.4,85,30.51,10.0,Calm,Calm,-,N/A,,Clear,0,2014-01-06 15:35:00
8:55 AM,3.2,-0.4,85,30.51,10.0,ESE,3.5,-,N/A,,Clear,120,2014-01-06 15:55:00
9:15 AM,6.8,3.2,85,30.51,10.0,Calm,Calm,-,N/A,,Clear,0,2014-01-06 16:15:00
9:35 AM,8.6,3.2,79,30.52,10.0,Calm,Calm,-,N/A,,Clear,0,2014-01-06 16:35:00
9:55 AM,10.4,3.2,73,30.51,10.0,Calm,Calm,-,N/A,,Clear,0,2014-01-06 16:55:00
10:15 AM,10.4,3.2,73,30.51,10.0,Calm,Calm,-,N/A,,Clear,0,2014-01-06 17:15:00
10:35 AM,12.2,3.2,67,30.52,10.0,Calm,Calm,-,N/A,,Clear,0,2014-01-06 17:35:00
10:55 AM,14.0,5.0,67,30.51,10.0,Calm,Calm,-,N/A,,Clear,0,2014-01-06 17:55:00
11:15 AM,14.0,5.0,67,30.50,10.0,Calm,Calm,-,N/A,,Clear,0,2014-01-06 18:15:00
11:35 AM,15.8,5.0,62,30.49,10.0,Calm,Calm,-,N/A,,Clear,0,2014-01-06 18:35:00
11:55 AM,17.6,5.0,58,30.48,10.0,Calm,Calm,-,N/A,,Clear,0,2014-01-06 18:55:00
12:15 PM,19.4,5.0,54,30.47,10.0,Calm,Calm,-,N/A,,Clear,0,2014-01-06 19:15:00
12:35 PM,21.2,5.0,50,30.46,10.0,Calm,Calm,-,N/A,,Clear,0,2014-01-06 19:35:00
12:55 PM,23.0,5.0,46,30.44,10.0,Calm,Calm,-,N/A,,Clear,0,2014-01-06 19:55:00
1:15 PM,24.8,5.0,43,30.43,10.0,Calm,Calm,-,N/A,,Clear,0,2014-01-06 20:15:00
1:35 PM,23.0,5.0,46,30.41,10.0,Calm,Calm,-,N/A,,Clear,0,2014-01-06 20:35:00
1:55 PM,24.8,6.8,46,30.40,10.0,Calm,Calm,-,N/A,,Clear,0,2014-01-06 20:55:00
2:15 PM,26.6,6.8,43,30.40,10.0,Calm,Calm,-,N/A,,Clear,0,2014-01-06 21:15:00
2:35 PM,26.6,5.0,40,30.39,10.0,Calm,Calm,-,N/A,,Clear,0,2014-01-06 21:35:00
2:55 PM,28.4,6.8,40,30.39,10.0,Calm,Calm,-,N/A,,Clear,0,2014-01-06 21:55:00
3:15 PM,28.4,5.0,37,30.38,10.0,Calm,Calm,-,N/A,,Clear,0,2014-01-06 22:15:00
3:35 PM,28.4,8.6,43,30.38,10.0,Calm,Calm,-,N/A,,Clear,0,2014-01-06 22:35:00
3:55 PM,28.4,6.8,40,30.38,10.0,Calm,Calm,-,N/A,,Clear,0,2014-01-06 22:55:00
4:15 PM,28.4,8.6,43,30.38,10.0,Calm,Calm,-,N/A,,Clear,0,2014-01-06 23:15:00
4:35 PM,24.8,10.4,54,30.37,10.0,Calm,Calm,-,N/A,,Clear,0,2014-01-06 23:35:00
4:55 PM,21.2,8.6,58,30.36,10.0,ESE,4.6,-,N/A,,Clear,120,2014-01-06 23:55:00
5:15 PM,15.8,8.6,73,30.35,10.0,ESE,4.6,-,N/A,,Clear,120,2014-01-07 00:15:00
5:35 PM,17.6,8.6,68,30.35,10.0,Calm,Calm,-,N/A,,Clear,0,2014-01-07 00:35:00
5:55 PM,14.0,5.0,67,30.35,10.0,Calm,Calm,-,N/A,,Clear,0,2014-01-07 00:55:00
6:15 PM,14.0,6.8,73,30.35,10.0,Calm,Calm,-,N/A,,Clear,0,2014-01-07 01:15:00
6:35 PM,12.2,3.2,67,30.35,10.0,SE,4.6,-,N/A,,Clear,130,2014-01-07 01:35:00
6:55 PM,12.2,5.0,73,30.35,10.0,SE,4.6,-,N/A,,Clear,130,2014-01-07 01:55:00
7:15 PM,10.4,5.0,79,30.35,10.0,ESE,3.5,-,N/A,,Clear,120,2014-01-07 02:15:00
7:35 PM,12.2,3.2,67,30.35,10.0,Calm,Calm,-,N/A,,Clear,0,2014-01-07 02:35:00
7:55 PM,14.0,6.8,73,30.35,10.0,Calm,Calm,-,N/A,,Clear,0,2014-01-07 02:55:00
8:15 PM,14.0,5.0,67,30.35,10.0,Calm,Calm,-,N/A,,Clear,0,2014-01-07 03:15:00
8:35 PM,10.4,5.0,79,30.34,10.0,Calm,Calm,-,N/A,,Clear,0,2014-01-07 03:35:00
8:55 PM,10.4,5.0,79,30.34,10.0,Calm,Calm,-,N/A,,Clear,0,2014-01-07 03:55:00
9:15 PM,8.6,3.2,79,30.33,10.0,Calm,Calm,-,N/A,,Clear,0,2014-01-07 04:15:00
9:35 PM,10.4,3.2,73,30.33,10.0,Calm,Calm,-,N/A,,Clear,0,2014-01-07 04:35:00
9:55 PM,10.4,3.2,73,30.32,10.0,Calm,Calm,-,N/A,,Clear,0,2014-01-07 04:55:00
10:15 PM,10.4,5.0,79,30.32,10.0,Calm,Calm,-,N/A,,Clear,0,2014-01-07 05:15:00
10:35 PM,8.6,3.2,79,30.31,10.0,Calm,Calm,-,N/A,,Clear,0,2014-01-07 05:35:00
10:55 PM,8.6,3.2,79,30.31,10.0,Calm,Calm,-,N/A,,Clear,0,2014-01-07 05:55:00
11:15 PM,8.6,3.2,79,30.30,10.0,SE,3.5,-,N/A,,Clear,140,2014-01-07 06:15:00
11:35 PM,10.4,3.2,73,30.29,10.0,ESE,4.6,-,N/A,,Clear,120,2014-01-07 06:35:00
11:55 PM,12.2,5.0,73,30.29,10.0,Calm,Calm,-,N/A,,Clear,0,2014-01-07 06:55:00